Location: G�kdere
(37.0328°N, 30.9000°E)
Time: 02:00:09
(UTC+00:00)

GP-B - Pass Details

Date: 03 March 2021
Orbit: 631 x 635 km, 89.8° (Epoch: 22 April)

Event Time Altitude Azimuth Distance (km) Brightness Sun altitude
Rises 17:41:34 0° 193° (SSW) 2,912 6.6 -22.5°
Reaches altitude 10° 17:43:52 10° 200° (SSW) 2,009 5.8 -22.9°
Maximum altitude 17:48:03 42° 271° (W) 902 4.3 -23.8°
Drops below altitude 10° 17:52:17 10° 343° (NNW) 2,025 6.0 -24.6°
Sets 17:54:37 0° 350° (N) 2,938 6.8 -25.1°
